EW3286 Weather Reports


Display with metric or nautical units.
time (UTC)temp
F
wind
direction
speed
MPH
gust
MPH
rain 1hr
in
rain 24hr
in
rain mn
in
humidity
%
barometer
mb
20260508180037 70 145 0.0 0.0 0.00 0.00 0.00 27 1005.8
20260508174539 69 212 0.0 0.0 0.00 0.00 0.00 27 1006.1
20260508173039 69 191 0.0 0.0 0.00 0.00 0.00 27 1006.3
20260508171527 68 226 0.0 0.0 0.00 0.00 0.00 29 1006.7
20260508170022 67 197 0.0 0.0 0.00 0.00 0.00 27 1007.0
20260508164519 67 161 0.0 0.0 0.00 0.00 0.00 28 1007.2
20260508163019 66 177 0.0 0.0 0.00 0.00 0.00 25 1007.4
20260508161511 66 155 0.0 0.0 0.00 0.00 0.00 28 1007.7
20260508160007 65 177 0.0 0.0 0.00 0.00 0.00 28 1007.8
20260508154505 65 160 0.0 0.0 0.00 0.00 0.00 30 1008.0
20260508153101 64 191 0.0 0.0 0.00 0.00 0.00 30 1008.1
20260508151556 63 172 0.0 0.0 0.00 0.00 0.00 29 1008.1
20260508150052 62 161 0.0 0.0 0.00 0.00 0.00 31 1008.3
20260508144549 60 140 0.0 0.0 0.00 0.00 0.00 34 1008.6
20260508143046 60 176 0.0 0.0 0.00 0.00 0.00 31 1008.8
20260508141610 60 146 0.0 0.0 0.00 0.00 0.00 31 1008.8
20260508140040 59 150 0.0 0.0 0.00 0.00 0.00 36 1008.8
20260508134550 57 169 0.0 0.0 0.00 0.00 0.00 37 1008.9
20260508133031 54 158 0.0 0.0 0.00 0.00 0.00 43 1008.8
20260508131527 53 148 0.0 0.0 0.00 0.00 0.00 45 1009.0
20260508130023 50 150 0.0 0.0 0.00 0.00 0.00 47 1009.2
20260508124521 50 123 0.0 0.0 0.00 0.00 0.00 47 1009.2
20260508123025 46 90 0.0 0.0 0.00 0.00 0.00 59 1009.0
20260508121512 44 225 0.0 0.0 0.00 0.00 0.00 61 1009.0
20260508120007 42 224 0.0 0.0 0.00 0.00 0.00 58 1009.1
20260508114506 42 254 0.0 0.0 0.00 0.00 0.00 57 1009.0
20260508113003 42 244 0.0 0.0 0.00 0.00 0.00 56 1009.1
20260508111604 42 244 0.0 0.0 0.00 0.00 0.00 56 1009.0
20260508104557 42 215 0.0 0.0 0.00 0.00 0.00 57 1009.0
20260508103056 42 215 0.0 0.0 0.00 0.00 0.00 57 1009.1
20260508101555 42 215 0.0 0.0 0.00 0.00 0.00 56 1009.3
20260508100054 41 215 0.0 0.0 0.00 0.00 0.00 55 1009.1
20260508094553 41 239 0.0 0.0 0.00 0.00 0.00 57 1009.2
20260508093055 41 239 0.0 0.0 0.00 0.00 0.00 58 1009.2
20260508091553 41 239 0.0 0.0 0.00 0.00 0.00 58 1009.1
20260508090049 41 239 0.0 0.0 0.00 0.00 0.00 59 1009.2
20260508084548 41 239 0.0 0.0 0.00 0.00 0.00 61 1009.2
20260508083105 41 239 0.0 0.0 0.00 0.00 0.00 58 1009.4
20260508081544 41 239 0.0 0.0 0.00 0.00 0.00 57 1009.4
20260508080043 41 239 0.0 0.0 0.00 0.00 0.00 57 1009.4
20260508074549 41 239 0.0 0.0 0.00 0.00 0.00 55 1009.5
20260508073040 41 239 0.0 0.0 0.00 0.00 0.00 56 1009.7
20260508071538 42 239 0.0 0.0 0.00 0.00 0.00 58 1009.8
20260508070035 41 239 0.0 0.0 0.00 0.00 0.00 56 1010.0
20260508064533 41 239 0.0 0.0 0.00 0.00 0.00 64 1010.0
20260508063032 42 239 0.0 0.0 0.00 0.00 0.00 69 1010.1
20260508061530 42 239 0.0 0.0 0.00 0.00 0.00 65 1010.1
20260508060029 42 239 0.0 0.0 0.00 0.00 0.00 66 1010.1
20260508054526 42 239 0.0 0.0 0.00 0.00 0.00 67 1010.2
20260508053026 42 239 0.0 0.0 0.00 0.00 0.00 63 1010.2
20260508051525 42 239 0.0 0.0 0.00 0.00 0.00 57 1010.2
20260508050021 42 239 0.0 0.0 0.00 0.00 0.00 55 1010.2
20260508044516 43 239 0.0 0.0 0.00 0.00 0.00 55 1010.2
20260508043014 44 239 0.0 0.0 0.00 0.00 0.00 58 1010.3
20260508041512 45 239 0.0 0.0 0.00 0.00 0.00 51 1010.4
20260508040012 46 239 0.0 0.0 0.00 0.00 0.00 52 1010.5
20260508034510 47 239 0.0 0.0 0.00 0.00 0.00 46 1010.5
20260508033010 48 239 0.0 0.0 0.00 0.00 0.00 43 1010.4
20260508031506 50 239 0.0 0.0 0.00 0.00 0.00 41 1010.5
20260508030005 52 239 0.0 0.0 0.00 0.00 0.00 39 1010.4
20260508024507 52 239 0.0 0.0 0.00 0.00 0.00 38 1010.3
20260508023004 52 244 0.0 0.0 0.00 0.00 0.00 38 1010.2
20260508021507 52 246 0.0 0.0 0.00 0.00 0.00 37 1009.9
20260508020003 54 153 0.0 0.0 0.00 0.00 0.00 36 1009.6
20260508014503 56 153 0.0 0.0 0.00 0.00 0.00 34 1009.6
20260508013002 57 192 0.0 0.0 0.00 0.00 0.00 31 1009.4
20260508011503 59 182 0.0 0.0 0.00 0.00 0.00 30 1009.2
20260508010004 60 189 0.0 0.0 0.00 0.00 0.00 28 1009.0
20260508004501 61 205 0.0 0.0 0.00 0.00 0.00 28 1009.0
20260508003001 61 205 0.0 0.0 0.00 0.00 0.00 26 1008.9
20260508001559 62 171 0.0 0.0 0.00 0.00 0.00 25 1008.9
20260508000058 62 169 0.0 0.0 0.00 0.00 0.00 25 1008.9
20260507234559 63 188 0.0 0.0 0.00 0.00 0.00 25 1009.0
20260507233057 63 202 0.0 0.0 0.00 0.00 0.00 26 1009.0
20260507231557 62 166 0.0 0.0 0.00 0.00 0.00 25 1009.2
20260507224555 63 213 0.0 0.0 0.00 0.00 0.00 26 1009.2
20260507223054 63 217 0.0 0.0 0.00 0.00 0.00 26 1009.3
20260507221551 63 170 0.0 0.0 0.00 0.00 0.00 26 1009.3
20260507220048 62 204 0.0 0.0 0.00 0.00 0.00 26 1009.5
20260507214605 62 198 0.0 0.0 0.00 0.00 0.00 27 1009.7
20260507213051 62 211 0.0 0.0 0.00 0.00 0.00 27 1009.7
20260507211546 62 192 0.0 0.0 0.00 0.00 0.00 28 1009.8
20260507210049 62 220 0.0 0.0 0.00 0.00 0.00 26 1010.0
20260507204534 61 169 0.0 0.0 0.00 0.00 0.00 29 1010.0
20260507203030 61 177 0.0 0.0 0.00 0.00 0.00 33 1010.1
20260507201525 61 190 0.0 0.0 0.00 0.00 0.00 32 1010.5
20260507200021 60 111 0.0 0.0 0.00 0.00 0.00 31 1010.5
20260507194519 60 193 0.0 0.0 0.00 0.00 0.00 31 1010.6
20260507193015 60 223 0.0 0.0 0.00 0.00 0.00 33 1010.9
20260507191513 59 158 0.0 0.0 0.00 0.00 0.00 34 1011.0
20260507190012 59 233 0.0 0.0 0.00 0.00 0.00 32 1011.1
20260507184515 59 88 0.0 0.0 0.00 0.00 0.00 34 1011.2
20260507183004 57 279 0.0 0.0 0.00 0.00 0.00 37 1011.2